Погода в Логачевке

Россия / Белгородская область     50°00′15″N   37°57′54″E
темп.,
°C
ветер,
м/с
пор.,
м/с
влажн.,
%
обл.,
%
осадки,
мм/ч
давл.,
гПа
погр.,
м
22 апреля, чт
чт2200:00+7ююз358224 0.1 101779
03:00+6юз348811 0.4 101968
06:00+6юз23915 0.0 102057
09:00+11юз34640 0.0 1021562
12:00+15юз44465 0.0 10211663
15:00+17юз353992 0.0 10202393
18:00+14ю3659100 0.0 1020176
21:00+12ю366694 0.0 1021114
23 апреля, пт
пт2300:00+10ю3569100 0.0 102191
03:00+10ю3570100 0.0 1020101
06:00+10ю357599 0.0 1020126
09:00+14ююз466155 0.0 1020675
12:00+16ююз684758 0.5 10192204
15:00+17ююз5745100 0.5 10172161
18:00+16ю4854100 0.0 1015379
21:00+12ю6126423 0.1 1015322
24 апреля, сб
сб2400:00+10юз51287100 0.4 1015541
03:00+9юз3790100 1.4 1013384
06:00+6зсз5790100 1.4 1014846
09:00+8зсз566841 1.6 10151197
12:00+11зюз794574 0.4 10142395
15:00+12з793992 0.4 10142587
18:00+8з6866100 0.3 10141150
21:00+5зюз5981100 0.8 1016836
25 апреля, вс
вс2500:00+5з510815 0.3 1017447
03:00+3з49915 0.3 1018297
06:00+2зюз49870 0.0 1019300
09:00+7з68605 0.0 10191209
12:00+10з674199 0.1 10192367
15:00+11з673699 0.1 10182503
18:00+11зюз474397 0.0 10171534
21:00+6юз3460100 0.0 101862
26 апреля, пн
пн2600:00+4зсз378598 0.0 1018185
03:00+3юз3495100 1.3 1018319
06:00+4юз369319 0.1 1018370
09:00+6зсз57636 0.4 10181174
12:00+9з5741100 0.0 10182502
15:00+10з6937100 0.0 10172683
18:00+9з695435 0.1 10171597
21:00+5зюз377088 0.1 1018181